Regional Weather Roundup
Issued by NWS

Home | Current Version | Previous Version | Text Only | Print | Product List | Glossary On
Versions: 1 2 3 4 5 6 7 8 9 10 11 12 13 14 15 16 17 18 19 20 21 22 23 24 25 26 27 28 29 30 31 32 33 34 35 36 37 38 39 40 41 42 43 44 45 46 47 48 49 50
000
ASUS43 KBIS 251710
RWRND

NORTH DAKOTA REGIONAL WEATHER ROUNDUP
NATIONAL WEATHER SERVICE BISMARCK ND
1200 PM CDT SAT MAR 25 2017

NOTE: "FAIR" INDICATES FEW OR NO CLOUDS BELOW 12,000 FEET WITH NO
SIGNIFICANT WEATHER AND/OR OBSTRUCTIONS TO VISIBILITY.


NDZ001>003-009>011-017-251800-
NORTHWEST NORTH DAKOTA

CITY           SKY/WX    TMP DP  RH WIND       PRES   REMARKS
WILLISTON      FAIR      56  34  43 W13G21    29.88R
MINOT          CLOUDY    38  32  79 S16G28    29.91F
MINOT AFB      CLOUDY    37  32  85 S12       29.92R
$$

NDZ018>021-031>035-040>046-251800-
SOUTHWEST NORTH DAKOTA

CITY           SKY/WX    TMP DP  RH WIND       PRES   REMARKS
BISMARCK       CLOUDY    36  32  85 S18       30.05S
DICKINSON      FAIR      45  32  60 S16       29.90F
GARRISON         N/A     35  31  85 S20       29.95F
HETTINGER ARPT CLOUDY    46  33  60 SE10      29.95F
$$

NDZ004>008-012>016-024-026-027-054-251800-
NORTHEAST NORTH DAKOTA

CITY           SKY/WX    TMP DP  RH WIND       PRES   REMARKS
GRAND FORKS    CLOUDY    38  33  82 S17G24    30.15S
GRND FRKS AFB  CLOUDY    37  32  82 S18G26    30.14S
DEVILS LAKE    CLOUDY    35  31  85 S22       30.08S
$$

NDZ022-023-025-028>030-036>039-047>053-251800-
SOUTHEAST NORTH DAKOTA

CITY           SKY/WX    TMP DP  RH WIND       PRES   REMARKS
FARGO          CLOUDY    36  32  85 SE12      30.17F
JAMESTOWN      CLOUDY    34  31  88 S18G26    30.09S
$$




USA.gov is the U.S. government's official web portal to all federal, state and local government web resources and services.